This is the latest recevied weather packets stored in our database for station/object PY2UTU-WX. If no packets are shown the sender has not sent any weather packets the latest 10 day(s).
| Time | Temp. | Humidity | Pressure | Rain* | Wind** | Luminosity | Snow |
|---|---|---|---|---|---|---|---|
| 1777830144 | 18.89° C | 98% | 926.8 hPa | - | - | - | - |
| 1777829244 | 18.89° C | 98% | 926.9 hPa | - | - | - | - |
| 1777828344 | 18.89° C | 98% | 927 hPa | - | - | - | - |
| 1777827444 | 18.89° C | 98% | 927.2 hPa | - | - | - | - |
| 1777826544 | 18.89° C | 98% | 927.2 hPa | - | - | - | - |
| 1777825644 | 17.78° C | 98% | 927.3 hPa | - | - | - | - |
| 1777824744 | 18.33° C | 98% | 928.1 hPa | - | - | - | - |
| 1777823844 | 18.33° C | 98% | 927.7 hPa | - | - | - | - |
| 1777822944 | 18.89° C | 98% | 927.7 hPa | - | - | - | - |
| 1777822044 | 18.33° C | 98% | 927.9 hPa | - | - | - | - |
| 1777821144 | 18.33° C | 98% | 928.2 hPa | - | - | - | - |
| 1777820244 | 17.22° C | 98% | 928.4 hPa | - | - | - | - |
| 1777819344 | 18.33° C | 98% | 928.5 hPa | - | - | - | - |
| 1777818443 | 17.78° C | 98% | 928.5 hPa | - | - | - | - |
| 1777817544 | 18.33° C | 98% | 928.8 hPa | - | - | - | - |
| 1777816643 | 18.33° C | 98% | 928.6 hPa | - | - | - | - |
| 1777815743 | 17.78° C | 98% | 928.8 hPa | - | - | - | - |
| 1777814844 | 17.78° C | 98% | 928.8 hPa | - | - | - | - |
| 1777813943 | 17.22° C | 98% | 929 hPa | - | - | - | - |
| 1777813044 | 17.78° C | 98% | 929 hPa | - | - | - | - |
| 1777812143 | 18.33° C | 98% | 928.8 hPa | - | - | - | - |
| 1777811244 | 18.33° C | 98% | 928.6 hPa | - | - | - | - |
| 1777810343 | 18.89° C | 98% | 928.5 hPa | - | - | - | - |
| 1777809444 | 17.78° C | 98% | 928.2 hPa | - | - | - | - |
| 1777808543 | 18.33° C | 98% | 928.2 hPa | - | - | - | - |
* Rain since midnight (hover to see other rain measurements)
** Current wind speed in m/s (hover to see current wind gust speed)